EW5238 Weather Reports


Display with metric or nautical units.
time (UTC)temp
F
wind
direction
speed
MPH
gust
MPH
rain 1hr
in
rain 24hr
in
rain mn
in
humidity
%
barometer
mb
20260503195850 79 190 6.0 12.0 0.00 0.00 0.00 41 1018.1
20260503195348 79 190 5.0 12.0 0.00 0.00 0.00 41 1018.1
20260503194849 79 190 4.0 9.0 0.00 0.00 0.00 42 1018.2
20260503194619 79 190 5.0 7.0 0.00 0.00 0.00 42 1018.2
20260503193846 79 190 5.0 11.0 0.00 0.00 0.00 43 1018.4
20260503193344 79 190 5.0 11.0 0.00 0.00 0.00 43 1018.6
20260503192844 79 190 3.0 8.0 0.00 0.00 0.00 42 1018.6
20260503192606 79 190 4.0 9.0 0.00 0.00 0.00 43 1018.6
20260503191832 79 190 4.0 12.0 0.00 0.00 0.00 42 1018.8
20260503190833 79 190 3.0 9.0 0.00 0.00 0.00 42 1018.9
20260503190333 79 190 5.0 11.0 0.00 0.00 0.00 43 1019.0
20260503185834 79 190 3.0 11.0 0.00 0.00 0.00 44 1019.0
20260503185605 79 190 2.0 6.0 0.00 0.00 0.00 45 1019.0
20260503184829 79 190 4.0 6.0 0.00 0.00 0.00 43 1019.1
20260503184329 79 190 5.0 11.0 0.00 0.00 0.00 44 1019.2
20260503183829 78 190 4.0 11.0 0.00 0.00 0.00 42 1019.4
20260503183328 78 190 3.0 8.0 0.00 0.00 0.00 44 1019.4
20260503183100 78 190 3.0 9.0 0.00 0.00 0.00 41 1019.4
20260503182329 78 190 4.0 9.0 0.00 0.00 0.00 44 1019.5
20260503181824 78 190 4.0 9.0 0.00 0.00 0.00 43 1019.7
20260503181557 78 190 3.0 9.0 0.00 0.00 0.00 43 1019.6
20260503180825 78 190 2.0 6.0 0.00 0.00 0.00 46 1019.7
20260503180323 78 190 3.0 12.0 0.00 0.00 0.00 45 1019.7
20260503175824 78 190 5.0 12.0 0.00 0.00 0.00 45 1019.9
20260503175326 78 190 3.0 11.0 0.00 0.00 0.00 43 1020.0
20260503174820 78 190 2.0 6.0 0.00 0.00 0.00 47 1020.0
20260503174319 78 190 3.0 10.0 0.00 0.00 0.00 44 1020.2
20260503173821 78 190 3.0 10.0 0.00 0.00 0.00 46 1020.2
20260503173319 78 190 3.0 10.0 0.00 0.00 0.00 46 1020.3
20260503172822 78 190 3.0 7.0 0.00 0.00 0.00 47 1020.4
20260503172317 78 190 3.0 6.0 0.00 0.00 0.00 44 1020.5
20260503171817 77 190 3.0 8.0 0.00 0.00 0.00 48 1020.6
20260503171312 77 190 3.0 8.0 0.00 0.00 0.00 44 1020.6
20260503170814 78 190 2.0 7.0 0.00 0.00 0.00 48 1020.7
20260503170312 77 190 3.0 8.0 0.00 0.00 0.00 47 1020.7
20260503150742 72 190 4.0 6.0 0.00 0.00 0.00 58 1020.8
20260503150242 72 190 3.0 7.0 0.00 0.00 0.00 60 1020.8
20260503140229 68 190 2.0 5.0 0.00 0.00 0.00 65 1020.6
20260503130713 60 190 0.0 2.0 0.00 0.00 0.00 1 1020.1
20260503130207 59 190 1.0 3.0 0.00 0.00 0.00 1 1020.0
20260503110703 53 190 0.0 0.0 0.00 0.00 0.00 1 1019.0
20260503090401 53 190 0.0 0.0 0.00 0.00 0.00 1 1018.9
20260503090133 53 190 0.0 0.0 0.00 0.00 0.00 1 1018.9
20260503081356 54 190 0.0 0.0 0.00 0.00 0.00 1 1018.7
20260503080859 54 190 0.0 0.0 0.00 0.00 0.00 1 1018.7
20260503080629 54 190 0.0 0.0 0.00 0.00 0.00 1 1018.7
20260503072854 54 190 0.0 0.0 0.00 0.00 0.00 11 1019.0
20260503072354 54 190 0.0 0.0 0.00 0.00 0.00 30 1019.1
20260503071857 55 190 0.0 0.0 0.00 0.00 0.00 29 1019.1
20260503071352 55 190 0.0 0.0 0.00 0.00 0.00 34 1019.1
20260503070853 56 190 0.0 0.0 0.00 0.00 0.00 41 1019.1
20260503070348 56 190 0.0 0.0 0.00 0.00 0.00 43 1019.2
20260503060333 57 190 0.0 0.0 0.00 0.00 0.00 36 1019.2
20260503054833 57 190 0.0 0.0 0.00 0.00 0.00 59 1019.1
20260503054331 58 190 0.0 0.0 0.00 0.00 0.00 60 1019.1
20260503053826 58 190 0.0 0.0 0.00 0.00 0.00 63 1019.2
20260503053325 58 190 0.0 0.0 0.00 0.00 0.00 64 1019.2
20260503053054 59 190 0.0 0.0 0.00 0.00 0.00 63 1019.2
20260503052320 59 190 0.0 0.0 0.00 0.00 0.00 61 1019.2
20260503051820 58 190 0.0 0.0 0.00 0.00 0.00 59 1019.2
20260503051319 58 190 0.0 0.0 0.00 0.00 0.00 57 1019.2
20260503050818 58 190 0.0 0.0 0.00 0.00 0.00 57 1019.3
20260503050316 58 190 0.0 0.0 0.00 0.00 0.00 61 1019.2
20260503045815 58 190 0.0 0.0 0.00 0.00 0.00 63 1019.0
20260503045312 59 190 0.0 0.0 0.00 0.00 0.00 61 1018.9
20260503044813 59 190 0.0 0.0 0.00 0.00 0.00 61 1018.9
20260503044543 59 190 0.0 0.0 0.00 0.00 0.00 64 1019.1
20260503043812 59 190 0.0 0.0 0.00 0.00 0.00 62 1019.2
20260503043315 59 190 0.0 0.0 0.00 0.00 0.00 62 1019.2
20260503042807 59 190 0.0 0.0 0.00 0.00 0.00 61 1019.1
20260503042307 59 190 0.0 0.0 0.00 0.00 0.00 58 1019.1
20260503041811 58 190 0.0 0.0 0.00 0.00 0.00 58 1019.0
20260503041541 59 190 0.0 0.0 0.00 0.00 0.00 62 1019.1
20260503040813 59 190 0.0 0.0 0.00 0.00 0.00 65 1019.0
20260503040038 59 190 0.0 0.0 0.00 0.00 0.00 67 1018.9
20260503035308 60 190 0.0 0.0 0.00 0.00 0.00 67 1018.8
20260503034806 60 190 0.0 0.0 0.00 0.00 0.00 68 1018.8
20260503034306 60 190 0.0 0.0 0.00 0.00 0.00 69 1018.7
20260503034041 60 190 0.0 0.0 0.00 0.00 0.00 69 1018.7
20260503033305 61 190 0.0 0.0 0.00 0.00 0.00 69 1018.8
20260503033029 61 190 0.0 0.0 0.00 0.00 0.00 69 1018.8
20260503032252 60 190 0.0 0.0 0.00 0.00 0.00 69 1018.8
20260503031751 60 190 0.0 0.0 0.00 0.00 0.00 69 1018.6
20260503031250 60 190 0.0 0.0 0.00 0.00 0.00 69 1018.5
20260503031027 60 190 0.0 0.0 0.00 0.00 0.00 68 1018.4
20260503030246 60 190 0.0 0.0 0.00 0.00 0.00 68 1018.3
20260503030019 61 190 0.0 0.0 0.00 0.00 0.00 69 1018.2
20260503025240 61 190 0.0 0.0 0.00 0.00 0.00 70 1018.1
20260503024744 61 190 0.0 0.0 0.00 0.00 0.00 70 1018.1
20260503024237 62 190 0.0 0.0 0.00 0.00 0.00 69 1018.1
20260503023735 63 190 0.0 0.0 0.00 0.00 0.00 69 1018.1
20260503023505 63 190 0.0 0.0 0.00 0.00 0.00 68 1018.1
20260503022730 63 190 0.0 0.0 0.00 0.00 0.00 68 1018.0
20260503022232 64 190 0.0 0.0 0.00 0.00 0.00 68 1018.0
20260503021730 64 190 0.0 0.0 0.00 0.00 0.00 68 1018.0
20260503021230 64 190 0.0 0.0 0.00 0.00 0.00 68 1018.0
20260503020728 64 190 0.0 0.0 0.00 0.00 0.00 68 1018.0
20260503020241 64 190 0.0 0.0 0.00 0.00 0.00 68 1017.8
20260503015725 64 190 0.0 0.0 0.00 0.00 0.00 68 1017.7
20260503015220 64 190 0.0 0.0 0.00 0.00 0.00 69 1017.6
20260503014722 64 190 0.0 0.0 0.00 0.00 0.00 69 1017.7
20260503014221 65 190 0.0 0.0 0.00 0.00 0.00 68 1017.7
20260503013722 65 190 0.0 0.0 0.00 0.00 0.00 65 1017.7
20260503013217 65 190 0.0 0.0 0.00 0.00 0.00 63 1017.6
20260503012720 66 190 0.0 0.0 0.00 0.00 0.00 63 1017.5
20260503012451 66 190 0.0 0.0 0.00 0.00 0.00 63 1017.5
20260503011716 67 190 0.0 0.0 0.00 0.00 0.00 63 1017.5
20260503011215 67 190 0.0 0.0 0.00 0.00 0.00 62 1017.4
20260503010711 68 190 0.0 0.0 0.00 0.00 0.00 61 1017.3
20260503010212 69 190 0.0 0.0 0.00 0.00 0.00 60 1017.2
20260503005712 69 190 0.0 0.0 0.00 0.00 0.00 60 1017.2
20260503005211 69 190 0.0 0.0 0.00 0.00 0.00 59 1017.2
20260503004707 70 190 0.0 0.0 0.00 0.00 0.00 59 1017.1
20260503004209 70 190 0.0 0.0 0.00 0.00 0.00 59 1017.1
20260503003700 70 190 0.0 0.0 0.00 0.00 0.00 58 1017.1
20260503003159 71 190 0.0 0.0 0.00 0.01 0.00 58 1017.1
20260503002657 71 190 0.0 0.0 0.00 0.01 0.00 57 1017.2
20260503002158 71 190 0.0 0.0 0.00 0.01 0.00 55 1017.1
20260503001655 72 190 0.0 0.0 0.00 0.03 0.00 55 1017.1
20260503001148 72 190 0.0 0.0 0.00 0.03 0.00 55 1017.0
20260503000651 72 190 1.0 2.0 0.00 0.03 0.00 54 1017.0
20260503000147 72 190 1.0 4.0 0.00 0.04 0.00 53 1016.9
20260502235649 72 190 0.0 4.0 0.00 0.04 0.00 53 1016.9
20260502235149 73 190 0.0 2.0 0.00 0.05 0.00 53 1016.9
20260502234649 73 190 1.0 4.0 0.00 0.05 0.00 53 1016.9
20260502234141 73 190 1.0 4.0 0.00 0.06 0.00 54 1016.9
20260502233642 73 190 1.0 5.0 0.00 0.07 0.00 52 1016.8
20260502233141 73 190 1.0 5.0 0.00 0.08 0.00 52 1016.8
20260502232637 74 190 1.0 5.0 0.00 0.09 0.00 51 1016.7
20260502232136 74 190 2.0 5.0 0.00 0.09 0.00 50 1016.7
20260502231628 74 190 1.0 5.0 0.00 0.10 0.00 49 1016.8
20260502231126 74 190 1.0 5.0 0.00 0.11 0.00 50 1016.8
20260502230628 74 190 1.0 5.0 0.00 0.12 0.00 51 1016.8
20260502230128 74 190 1.0 6.0 0.00 0.14 0.00 50 1016.8
20260502225625 74 190 2.0 6.0 0.00 0.16 0.00 51 1016.8
20260502225124 74 190 2.0 6.0 0.00 0.18 0.00 51 1016.8
20260502224622 74 190 2.0 6.0 0.00 0.22 0.00 51 1016.8
20260502224125 74 190 3.0 7.0 0.00 0.24 0.00 51 1016.8
20260502223620 74 190 2.0 7.0 0.00 0.24 0.00 51 1016.8
20260502223119 74 190 2.0 7.0 0.00 0.24 0.00 53 1016.9
20260502222618 74 190 3.0 7.0 0.00 0.25 0.00 50 1016.8
20260502222349 74 190 3.0 6.0 0.00 0.25 0.00 50 1016.8
20260502221614 74 190 3.0 6.0 0.00 0.25 0.00 50 1016.8
20260502221113 75 190 3.0 6.0 0.00 0.26 0.00 50 1016.9
20260502220613 75 190 2.0 5.0 0.00 0.26 0.00 51 1016.9
20260502220110 75 190 2.0 6.0 0.00 0.28 0.00 50 1016.9
20260502215612 75 190 2.0 6.0 0.00 0.30 0.00 51 1016.9
20260502215105 75 190 2.0 5.0 0.00 0.31 0.00 53 1017.1
20260502214834 75 190 2.0 5.0 0.00 0.31 0.00 50 1017.1
20260502214107 75 190 2.0 6.0 0.00 0.31 0.00 51 1017.0
20260502213600 75 190 3.0 6.0 0.00 0.31 0.00 52 1017.1
20260502213100 74 190 2.0 6.0 0.00 0.31 0.00 51 1017.2
20260502212555 74 190 2.0 6.0 0.00 0.33 0.00 52 1017.2
20260502212052 74 190 2.0 6.0 0.00 0.34 0.00 52 1017.3
20260502211553 74 190 2.0 6.0 0.00 0.35 0.00 57 1017.4
20260502211054 73 190 2.0 6.0 0.00 0.35 0.00 52 1017.5
20260502210827 74 190 2.0 6.0 0.00 0.35 0.00 52 1017.6
20260502210326 75 190 1.0 7.0 0.00 0.36 0.00 51 1017.7
20260502205545 75 190 2.0 8.0 0.00 0.39 0.00 54 1017.7
20260502205317 74 190 3.0 8.0 0.00 0.44 0.00 52 1017.7
20260502204042 74 190 1.0 7.0 0.00 0.46 0.00 57 1017.8
20260502203543 74 190 2.0 8.0 0.00 0.47 0.00 53 1017.8
20260502203041 74 190 3.0 8.0 0.00 0.47 0.00 55 1017.9
20260502202545 74 190 3.0 7.0 0.00 0.48 0.00 53 1017.9
20260502202042 74 190 2.0 6.0 0.00 0.49 0.00 55 1018.0
20260502201810 74 190 2.0 8.0 0.00 0.50 0.00 54 1017.9
20260502201038 74 190 2.0 8.0 0.00 0.51 0.00 53 1018.1
20260502200538 74 190 1.0 6.0 0.00 0.52 0.00 55 1018.1